STARLINK-30293 (57649 NORAD) Tracking and Keplerian Element Data

This shows tracking and keplerian element data for the satellite.

Feedback or suggestion? Click here.




ElementValue
Catalog57649
NameSTARLINK-30293
Epoch Orbit279
Epoch Day238.91667824
Epoch Year2023
RAAN95.9214
Inclination43.0011
Eccentricity0.0003875
Argument of Perigee209.8907
Mean Anonmoly216.5177
Mean Motion15.86126717
Decay Rate-0.00910452
L11 57649U 23122T 23238.91667824 -.00910452 00000+0 -39289-2 0 9997
L22 57649 43.0011 95.9214 0003875 209.8907 216.5177 15.86126717 2791



Live tracking and technical data element details for STARLINK-30293 (NORAD 57649). STARLINK-30293 can be tracked NOW for your location showing map with azimuth and elevation plus other details from your city location.







IsCatalogInMostPopularTable: catalog: 57649, numindb: 9
Update: records affected: 1



GetName: 57649 STARLINK-30293

Hit Count: updated at: Tue, 26 Sep 2023 11:33:45 GMT